Time,TemperatureF,DewpointF,PressureIn,WindDirection,WindDirectionDegrees,WindSpeedMPH,WindSpeedGustMPH,Humidity,HourlyPrecipIn,Conditions,Clouds,dailyrainin,SoftwareType,DateUTC
2014-08-27 00:01:00,62.7,35.4,30.08,SSW,204,0.0,1.0,36,0.00,,CLR,0.00,VWS V15.00,2014-08-27 07:01:00,
2014-08-27 00:06:00,62.6,35.3,30.08,SSW,193,0.0,1.0,36,0.00,,CLR,0.00,VWS V15.00,2014-08-27 07:06:00,
2014-08-27 00:11:00,62.6,34.6,30.08,SSW,197,1.0,3.0,35,0.00,,CLR,0.00,VWS V15.00,2014-08-27 07:11:00,
2014-08-27 00:16:00,62.9,34.8,30.08,SSW,205,2.0,3.0,35,0.00,,CLR,0.00,VWS V15.00,2014-08-27 07:16:00,
2014-08-27 00:21:00,63.2,34.4,30.08,SSW,207,1.0,3.0,34,0.00,,CLR,0.00,VWS V15.00,2014-08-27 07:21:00,
2014-08-27 00:26:00,63.1,35.0,30.08,SSW,207,1.0,3.0,35,0.00,,CLR,0.00,VWS V15.00,2014-08-27 07:26:00,
2014-08-27 00:31:00,62.9,34.8,30.08,SSW,207,0.0,3.0,35,0.00,,CLR,0.00,VWS V15.00,2014-08-27 07:31:00,
2014-08-27 00:36:00,62.6,34.6,30.08,SSW,207,0.0,3.0,35,0.00,,CLR,0.00,VWS V15.00,2014-08-27 07:36:00,
2014-08-27 00:41:00,62.3,35.0,30.08,SSW,207,0.0,3.0,36,0.00,,CLR,0.00,VWS V15.00,2014-08-27 07:41:00,
2014-08-27 00:46:00,61.9,35.4,30.09,SSW,207,0.0,3.0,37,0.00,,CLR,0.00,VWS V15.00,2014-08-27 07:46:00,
2014-08-27 00:50:00,61.2,35.4,30.09,SSW,207,0.0,3.0,38,0.00,,CLR,0.00,VWS V15.00,2014-08-27 07:50:00,
2014-08-27 00:55:00,60.8,35.1,30.09,SSW,207,0.0,3.0,38,0.00,,CLR,0.00,VWS V15.00,2014-08-27 07:55:00,
2014-08-27 01:00:00,60.3,35.3,30.09,SSW,207,0.0,3.0,39,0.00,,CLR,0.00,VWS V15.00,2014-08-27 08:00:00,
2014-08-27 01:05:00,60.3,35.3,30.09,SSW,207,0.0,3.0,39,0.00,,CLR,0.00,VWS V15.00,2014-08-27 08:05:00,
2014-08-27 01:10:00,60.4,34.7,30.09,SSW,207,0.0,3.0,38,0.00,,CLR,0.00,VWS V15.00,2014-08-27 08:10:00,
2014-08-27 01:15:00,60.2,35.2,30.09,SSW,207,0.0,3.0,39,0.00,,CLR,0.00,VWS V15.00,2014-08-27 08:15:00,
2014-08-27 01:20:00,59.8,35.5,30.08,SSW,207,0.0,3.0,40,0.00,,CLR,0.00,VWS V15.00,2014-08-27 08:20:00,
2014-08-27 01:25:00,59.3,36.8,30.09,SSW,207,0.0,3.0,43,0.00,,CLR,0.00,VWS V15.00,2014-08-27 08:25:00,
2014-08-27 01:30:00,58.3,37.6,30.09,West,278,0.0,3.0,46,0.00,,CLR,0.00,VWS V15.00,2014-08-27 08:30:00,
2014-08-27 01:35:00,57.6,37.5,30.09,West,278,0.0,3.0,47,0.00,,CLR,0.00,VWS V15.00,2014-08-27 08:35:00,
2014-08-27 01:40:00,57.1,37.1,30.09,West,277,0.0,3.0,47,0.00,,CLR,0.00,VWS V15.00,2014-08-27 08:40:00,
2014-08-27 01:45:00,56.8,35.7,30.09,WSW,249,0.0,3.0,45,0.00,,CLR,0.00,VWS V15.00,2014-08-27 08:45:00,
2014-08-27 01:50:00,56.8,35.7,30.09,WSW,249,0.0,3.0,45,0.00,,CLR,0.00,VWS V15.00,2014-08-27 08:50:00,
2014-08-27 01:55:00,57.9,35.6,30.09,South,186,0.0,3.0,43,0.00,,CLR,0.00,VWS V15.00,2014-08-27 08:55:00,
2014-08-27 02:00:00,58.2,35.2,30.09,South,186,0.0,0.0,42,0.00,,CLR,0.00,VWS V15.00,2014-08-27 09:00:00,
2014-08-27 02:05:00,58.4,34.8,30.09,SSW,210,1.0,2.0,41,0.00,,CLR,0.00,VWS V15.00,2014-08-27 09:05:00,
2014-08-27 02:10:00,58.4,35.4,30.09,SSW,205,0.0,2.0,42,0.00,,CLR,0.00,VWS V15.00,2014-08-27 09:10:00,
2014-08-27 02:15:00,58.2,35.8,30.09,SSW,206,0.0,2.0,43,0.00,,CLR,0.00,VWS V15.00,2014-08-27 09:15:00,
2014-08-27 02:20:00,58.0,36.2,30.09,SSW,207,1.0,2.0,44,0.00,,CLR,0.00,VWS V15.00,2014-08-27 09:20:00,
2014-08-27 02:25:00,57.8,36.0,30.09,SSW,207,0.0,2.0,44,0.00,,CLR,0.00,VWS V15.00,2014-08-27 09:25:00,
2014-08-27 02:30:00,57.5,35.8,30.10,SSW,207,0.0,2.0,44,0.00,,CLR,0.00,VWS V15.00,2014-08-27 09:30:00,
2014-08-27 02:35:00,57.2,36.1,30.09,SSW,207,0.0,2.0,45,0.00,,CLR,0.00,VWS V15.00,2014-08-27 09:35:00,
2014-08-27 02:40:00,56.9,35.8,30.10,SSW,207,0.0,2.0,45,0.00,,CLR,0.00,VWS V15.00,2014-08-27 09:40:00,
2014-08-27 02:45:00,56.5,36.0,30.10,SSW,207,0.0,2.0,46,0.00,,CLR,0.00,VWS V15.00,2014-08-27 09:45:00,
2014-08-27 02:50:00,56.1,36.2,30.10,SSW,207,0.0,2.0,47,0.00,,CLR,0.00,VWS V15.00,2014-08-27 09:50:00,
2014-08-27 02:55:00,56.0,36.1,30.10,SSW,207,0.0,2.0,47,0.00,,CLR,0.00,VWS V15.00,2014-08-27 09:55:00,
2014-08-27 03:00:00,55.8,35.3,30.10,SSW,207,0.0,2.0,46,0.00,,CLR,0.00,VWS V15.00,2014-08-27 10:00:00,
2014-08-27 03:05:00,55.9,35.4,30.10,SSW,207,0.0,2.0,46,0.00,,CLR,0.00,VWS V15.00,2014-08-27 10:05:00,
2014-08-27 03:10:00,56.1,35.1,30.10,SSW,207,0.0,2.0,45,0.00,,CLR,0.00,VWS V15.00,2014-08-27 10:10:00,
2014-08-27 03:15:00,56.2,35.2,30.10,SSW,207,0.0,2.0,45,0.00,,CLR,0.00,VWS V15.00,2014-08-27 10:15:00,
2014-08-27 03:20:00,56.3,34.7,30.11,SSW,207,0.0,2.0,44,0.00,,CLR,0.00,VWS V15.00,2014-08-27 10:20:00,
2014-08-27 03:25:00,56.2,35.2,30.10,SSW,207,0.0,2.0,45,0.00,,CLR,0.00,VWS V15.00,2014-08-27 10:25:00,
2014-08-27 03:30:00,56.2,35.2,30.10,SSW,207,0.0,2.0,45,0.00,,CLR,0.00,VWS V15.00,2014-08-27 10:30:00,
2014-08-27 03:35:00,56.2,35.2,30.11,SSW,207,0.0,2.0,45,0.00,,CLR,0.00,VWS V15.00,2014-08-27 10:35:00,
2014-08-27 03:40:00,56.4,35.3,30.11,SSW,207,0.0,2.0,45,0.00,,CLR,0.00,VWS V15.00,2014-08-27 10:40:00,
2014-08-27 03:45:00,56.3,35.2,30.10,SSW,207,0.0,2.0,45,0.00,,CLR,0.00,VWS V15.00,2014-08-27 10:45:00,
2014-08-27 03:50:00,56.1,35.1,30.11,SSW,207,0.0,2.0,45,0.00,,CLR,0.00,VWS V15.00,2014-08-27 10:50:00,
2014-08-27 03:55:00,55.8,34.8,30.11,SSW,207,0.0,2.0,45,0.00,,CLR,0.00,VWS V15.00,2014-08-27 10:55:00,
2014-08-27 04:00:00,55.3,36.0,30.11,SSW,207,0.0,0.0,48,0.00,,CLR,0.00,VWS V15.00,2014-08-27 11:00:00,
2014-08-27 04:05:00,54.7,36.4,30.11,SSW,207,0.0,0.0,50,0.00,,CLR,0.00,VWS V15.00,2014-08-27 11:05:00,
2014-08-27 04:10:00,54.1,36.9,30.11,SSW,207,0.0,0.0,52,0.00,,CLR,0.00,VWS V15.00,2014-08-27 11:10:00,
2014-08-27 04:15:00,53.5,37.8,30.11,SSW,207,0.0,0.0,55,0.00,,CLR,0.00,VWS V15.00,2014-08-27 11:15:00,
2014-08-27 04:20:00,53.0,37.7,30.11,SSW,207,0.0,0.0,56,0.00,,CLR,0.00,VWS V15.00,2014-08-27 11:20:00,
2014-08-27 04:25:00,52.5,37.3,30.11,SSW,207,0.0,0.0,56,0.00,,CLR,0.00,VWS V15.00,2014-08-27 11:25:00,
2014-08-27 04:30:00,52.1,37.8,30.11,SSW,207,0.0,0.0,58,0.00,,CLR,0.00,VWS V15.00,2014-08-27 11:30:00,
2014-08-27 04:35:00,52.1,36.9,30.11,SSW,207,0.0,0.0,56,0.00,,CLR,0.00,VWS V15.00,2014-08-27 11:35:00,
2014-08-27 04:40:00,52.3,36.2,30.11,SSW,207,0.0,0.0,54,0.00,,CLR,0.00,VWS V15.00,2014-08-27 11:40:00,
2014-08-27 04:45:00,52.8,36.2,30.11,SSW,207,0.0,0.0,53,0.00,,CLR,0.00,VWS V15.00,2014-08-27 11:45:00,
2014-08-27 04:50:00,52.9,35.8,30.12,SSW,207,0.0,0.0,52,0.00,,CLR,0.00,VWS V15.00,2014-08-27 11:50:00,
2014-08-27 04:55:00,53.0,36.8,30.12,SSW,207,0.0,0.0,54,0.00,,CLR,0.00,VWS V15.00,2014-08-27 11:55:00,
2014-08-27 05:00:00,52.9,36.2,30.12,SSW,206,0.0,0.0,53,0.00,,CLR,0.00,VWS V15.00,2014-08-27 12:00:00,
2014-08-27 05:05:00,53.0,36.3,30.12,SSW,207,0.0,0.0,53,0.00,,CLR,0.00,VWS V15.00,2014-08-27 12:05:00,
2014-08-27 05:10:00,53.1,35.5,30.12,SSW,207,0.0,0.0,51,0.00,,CLR,0.00,VWS V15.00,2014-08-27 12:10:00,
2014-08-27 05:15:00,53.0,36.8,30.12,SSW,207,0.0,0.0,54,0.00,,CLR,0.00,VWS V15.00,2014-08-27 12:15:00,
2014-08-27 05:20:00,52.9,35.8,30.12,SSW,207,0.0,0.0,52,0.00,,CLR,0.00,VWS V15.00,2014-08-27 12:20:00,
2014-08-27 05:25:00,53.1,35.5,30.12,SSW,207,0.0,0.0,51,0.00,,CLR,0.00,VWS V15.00,2014-08-27 12:25:00,
2014-08-27 05:30:00,52.9,35.3,30.12,SSW,207,0.0,0.0,51,0.00,,CLR,0.00,VWS V15.00,2014-08-27 12:30:00,
2014-08-27 05:35:00,52.7,35.1,30.13,SSW,207,0.0,0.0,51,0.00,,CLR,0.00,VWS V15.00,2014-08-27 12:35:00,
2014-08-27 05:40:00,52.9,35.3,30.13,SSW,207,0.0,0.0,51,0.00,,CLR,0.00,VWS V15.00,2014-08-27 12:40:00,
2014-08-27 05:45:00,52.9,35.3,30.13,SSW,207,0.0,0.0,51,0.00,,CLR,0.00,VWS V15.00,2014-08-27 12:45:00,